Location: Glion
(46.4330°N, 6.9246°E)
Time: 17:36:32
(UTC+00:00)

Cosmos 2218 Rocket - Pass Details

Date: 03 March 2021
Orbit: 955 x 1007 km, 82.9° (Epoch: 22 April)

Event Time Altitude Azimuth Distance (km) Brightness Sun altitude
Rises 18:47:29 0° 168° (SSE) 3,720 6.8 -15.6°
Reaches altitude 10° 18:50:05 10° 163° (SSE) 2,776 6.1 -16.1°
Maximum altitude 18:56:11 49° 90° (E) 1,286 4.2 -17.1°
Drops below altitude 10° 19:02:17 10° 18° (NNE) 2,788 6.3 -18.1°
Sets 19:04:54 0° 14° (NNE) 3,738 7.0 -18.6°
